Regional Weather Roundup
Issued by NWS

Home | Current Version | Previous Version | Text Only | Print | Product List | Glossary Off
Versions: 1 2 3 4 5 6 7 8 9 10 11 12 13 14 15 16 17 18 19 20 21 22 23 24 25 26 27 28 29 30 31 32 33 34 35 36 37 38 39 40 41 42 43 44 45 46 47 48 49 50

000
ASUS43 KFSD 271110
RWRSD

WEATHER ROUNDUP FOR SOUTH DAKOTA
NATIONAL WEATHER SERVICE SIOUX FALLS SD
600 AM CDT TUE SEP 27 2016

NOTE: "FAIR" INDICATES FEW OR NO CLOUDS BELOW 12,000 FEET WITH NO
SIGNIFICANT WEATHER AND/OR OBSTRUCTIONS TO VISIBILITY.


SDZ001>005-009-010-012>017-271200-
NORTHWEST AND NORTH CENTRAL SOUTH DAKOTA

CITY           SKY/WX    TMP DP  RH WIND       PRES   REMARKS
BUFFALO          N/A     49  43  80 CALM      30.01F
FAITH            N/A     50  42  74 SW6       30.06F
MOBRIDGE       CLEAR     40  36  86 N3        30.01S
$$

SDZ012>016-024>037-041>051-057-063-072>074-271200-
SOUTHWEST AND SOUTH CENTRAL SOUTH DAKOTA

CITY           SKY/WX    TMP DP  RH WIND       PRES   REMARKS
RAPID CTY ARPT CLEAR     40  36  86 NW3       30.10F
PIERRE         CLEAR     46  38  73 W6        30.03F
CUSTER         CLEAR     48  39  71 CALM      30.20F
ELLSWORTH AFB  CLEAR     47  41  79 W6        30.09F
PHILIP         CLEAR     43  39  86 W8        30.08F
PINE RIDGE     CLOUDY    34  33  96 E3        30.14F
WINNER         FAIR      48  39  71 SW7       30.08F HAZE
$$

SDZ004>011-016>023-039-040-271200-
NORTHEAST SOUTH DAKOTA

CITY           SKY/WX    TMP DP  RH WIND       PRES   REMARKS
ABERDEEN       CLEAR     42  36  79 W6        30.00S
WATERTOWN      CLEAR     46  38  73 W7        29.98F
BROOKINGS      CLEAR     43  36  76 CALM      29.99S
SISSETON         N/A     44  35  70 NW7       29.95S
$$

SDZ017-020-022-023-036>040-048>070-271200-
SOUTHEAST SOUTH DAKOTA

CITY           SKY/WX    TMP DP  RH WIND       PRES   REMARKS
SIOUX FALLS    CLEAR     46  37  71 W9        30.01F
HURON          CLEAR     44  36  73 W7        30.01F
CHAMBERLAIN    CLEAR     46  42  86 W6        30.05F
MITCHELL       CLEAR     48  38  68 W6        30.03F
YANKTON        CLEAR     48  39  71 CALM      30.02F
$$

ABBREVIATIONS USED IN REMARKS
   TC - TEMPERATURE IN CELSIUS
  WCI - WIND CHILL INDEX
   HX - HEAT INDEX
  VSB - VISIBILITY





USA.gov is the U.S. government's official web portal to all federal, state and local government web resources and services.